SCP
0 0 0 0 0 0 0 0 0 0 0 0 0 0 0 0 0 0 0 0 0 0 0 0 0 0 0 0 0 0 0 0 0 0 0 0 0 0 0 0 0 0 0
0 0 0 0 0 0 0 0 0 0 0 0 0 0 0 0 0 0 0 0 0 0 0 0 0 0 0 0 0 0 0 0 0 0 0 0 0 0 0 0 0 0 0
0 0 0 0 0 0 0 0 0 0 0 0 0 0 0 0 0 0 0 0 0 0 0 0 0 0 0 0 0 0 0 0 0 0 0 0 0 0 0 0 0 0 0
0 0 0 0 0 0 0 0 0 0 0 0 0 0 0 0 0 0 0 0 0 0 0 0 0 0 0 0 0 0 0 0 0 0 0 0 0 0 0 0 0 0 0
0 0 0 0 0 0 0 0 0 0 0 0 0 0 0 0 0 0 0 0 0 0 0 0 0 0 0 0 0 0 0 0 0 0 0 0 0 0 0 0 0 0 0
0 0 0 0 0 0 0 0 0 0 0 0 0 0 0 0 0 0 0 0 0 0 0 0 0 0 0 0 0 0 0 0 0 0 0 0 0 0 0 0 0 0 0
0 0 0 0 0 0 0 0 0 0 0 0 0 0 0 0 0 0 0 0 0 0 0 0 0 0 0 0 0 0 0 0 0 0 0 0 0 0 0 0 0 0 0
0 0 0 0 0 0 0 0 0 0 0 0 0 0 0 0 0 0 0 0 0 0 0 0 0 0 0 0 0 0 0 0 0 0 0 0 0 0 0 0 0 0 0
0 0 0 0 0 0 0 0 0 0 0 0 0 0 0 0 0 0 0 0 0 0 0 0 0 0 0 0 0 0 0 0 0 0 0 0 0 0 0 0 0 0 0
0 0 0 0 0 0 0 0 0 0 0 0 0 0 0 0 0 0 0 0 0 0 0 0 0 0 0 0 0 0 0 0 0 0 0 0 0 0 0 0 0 0 0
0 0 0 0 0 0 0 0 0 0 0 0 0 0 0 0 0 0 0 0 0 0 0 0 0 0 0 0 0 0 0 0 0 0 0 0 0 0 0 0 0 0 0
0 0 0 0 0 0 0 0 0 0 0 0 0 0 0 0 0 0 0 0 0 0 0 0 0 0 0 0 0 0 0 0 0 0 0 0 0 0 0 0 0 0 0
0 0 0 0 0 0 0 0 0 0 0 0 0 0 0 0 0 0 0 0 0 0 0 0 0 0 0 0 0 0 0 0 0 0 0 0 0 0 0 0 0 0 0
0 0 0 0 0 0 0 0 0 0 0 0 0 0 0 0 0 0 0 0 0 0 0 0 0 0 0 0 0 0 0 0 0 0 0 0 0 0 0 0 0 0 0
0 0 0 0 0 0 0 0 0 0 0 0 0 0 0 0 0 0 0 0 0 0 0 0 0 0 0 0 0 0 -0 0 0 0 0 0 0 0 0 0 0 0 0
0 0 0 0 0 0 0 0 0 0 0 0 0 0 0 0 0 0 0 0 0 0 0 0 0 0 0 0 0 0 0 0 0 0 0 0 0 0 0 0 0 0 0
0 0 0 0 0 0 0 0 0 0 0 0 0 0 0 0 0 0 0 0 0 0 0 0 0 0 0 0 0 0 0 0 0 0 0 0 0 0 0 0 0 0 0
0 0 0 0 0 0 0 0 0 0 0 0 0 0 0 0 0 0 0 0 0 0 0 0 0 0 0 0 0 0 0 0 0 0 0 0 0 0 0 0 0 0 0
0 0 0 0 0 0 0 0 0 0 0 0 0 0 0 0 0 0 0 0 0 0 0 0 0 0 0 0 0 0 0 0 0 0 -0 0 0 0 0 0 0 0 0
0 0 0 0 0 0 0 0 0 0 0 0 0 0 0 0 0 0 0 0 0 0 0 0 0 0 0 0 0 0 0 0 0 0 0 0 0 0 0 0 0 0 0
0 0 0 0 0 0 0 0 0 0 0 0 0 0 0 0 0 0 0 0 0 0 0 0 0 0 0 0 0 0 0 0 0 0 0 0 0 0 0 0 0 0 0
0 0 0 0 0 0 0 0 0 0 0 0 0 0 0 0 0 0 0 0 0 0 0 0 0 0 0 0 0 0 0 0 0 0 0 0 0 0 0 0 0 0 0
0 0 0 0 0 0 0 0 0 0 0 0 0 0 0 0 0 0 0 0 0 0 0 0 0 0 0 0 0 0 0 0 0 0 0 0 0 0 0 0 0 0 0
0 0 0 0 0 0 0 0 0 0 0 0 0 0 0 0 0 0 0 0 0 0 0 0 0 0 0 0 0 0 0 0 0 0 0 0 0 0 0 0 0 0 0
0 0 0 0 0 0 0 0 0 0 0 0 0 0 0 0 0 0 0 0 0 0 0 0 0 0 0 0 0 0 0 0 0 0 0 0 0 0 0 0 0 0 0
0 0 0 0 0 0 0 0 0 0 0 0 0 0 0 0 0 0 0 0 0 0 0 0 0 0 0 0 0 0 0 0 0 0 0 0 0 0 0 0 0 0 0
Wind_Speed
5 5 4 4 4 3 3 3 3 2 2 2 2 3 4 4 4 4 2 4 7 8 9 10 11 11 12 13 13 14 14 15 15 14 15 15 15 15 15 15 15 16 16
5 5 5 4 4 3 3 2 2 1 1 1 2 3 4 4 4 4 4 3 5 8 9 10 11 12 13 14 14 15 16 16 16 16 16 16 16 16 17 17 17 17 18
6 5 5 4 4 4 3 2 2 1 1 1 2 3 3 3 3 3 3 3 4 6 9 11 12 13 14 14 15 15 16 16 17 17 17 17 18 18 18 19 19 19 19
7 6 5 5 5 4 3 3 2 2 2 2 2 3 3 2 2 2 3 4 4 4 8 12 13 14 14 15 15 16 17 17 18 18 18 18 18 19 19 20 20 20 21
8 7 5 5 5 4 4 3 3 2 2 2 2 3 3 2 2 3 4 5 6 6 6 8 10 13 15 16 16 16 17 17 18 18 19 19 19 19 20 20 21 21 21
10 8 6 6 6 5 4 4 4 3 2 2 2 2 1 1 2 3 5 5 6 7 7 7 6 8 13 15 17 17 18 18 18 19 19 19 20 20 21 21 21 22 22
10 9 6 7 7 6 6 6 4 4 3 2 2 2 1 2 4 3 4 4 6 6 7 7 6 6 6 12 17 18 18 19 19 19 19 20 20 21 21 21 21 22 22
11 9 10 7 7 6 7 6 5 3 2 2 2 2 2 3 3 3 3 4 4 5 6 7 7 7 6 5 11 17 18 18 19 19 19 20 20 21 21 22 22 22 23
12 11 11 9 8 8 7 8 7 7 4 3 3 2 3 2 0 3 3 3 4 4 4 5 6 7 7 6 7 13 17 18 18 19 19 20 20 21 21 22 22 23 23
13 12 11 11 9 8 8 7 7 6 5 4 3 2 2 1 2 2 3 3 3 4 4 3 5 6 7 5 7 13 16 17 17 18 18 19 20 21 21 22 22 23 24
12 12 11 10 9 8 8 8 7 7 5 5 4 3 3 2 3 3 3 1 1 3 3 3 4 4 6 6 6 12 15 16 17 17 18 19 20 20 21 22 23 23 24
9 12 11 10 9 8 8 8 8 8 6 5 5 4 4 3 4 4 4 2 1 1 2 2 3 4 5 5 7 13 14 16 17 17 18 18 19 20 21 22 22 23 24
9 11 10 10 8 8 8 7 7 7 6 6 5 4 3 3 2 3 3 2 2 1 1 1 2 3 4 5 6 12 10 15 16 17 17 18 18 19 20 21 22 23 23
10 11 11 10 9 9 8 7 6 6 6 6 6 5 4 3 3 2 2 3 2 2 3 2 2 2 4 4 8 11 8 13 15 16 17 17 18 19 19 20 21 22 23
8 11 10 9 9 9 9 8 6 7 6 6 6 6 5 4 3 2 2 2 2 2 2 2 1 2 4 4 8 8 8 12 13 14 16 17 17 18 19 20 21 22 23
10 11 10 10 9 9 9 8 8 7 8 6 6 7 6 5 4 3 3 2 1 2 2 1 0 2 4 4 6 7 7 11 9 12 15 16 16 18 19 20 20 21 22
12 12 11 11 10 10 10 9 9 9 9 8 7 8 7 7 5 4 3 3 2 1 2 1 1 2 4 5 6 6 7 7 7 11 14 15 16 17 18 19 19 20 21
12 12 12 11 11 10 10 11 11 10 10 10 9 9 9 6 7 5 4 4 3 2 2 2 1 2 4 5 6 7 6 6 7 10 13 14 15 16 17 18 18 19 21
11 11 12 12 12 11 11 10 11 10 10 10 10 10 9 9 8 5 5 4 3 2 1 2 2 2 3 4 6 6 7 6 7 8 10 12 14 16 16 16 17 18 20
12 12 11 11 11 11 11 11 11 11 10 9 8 9 9 8 8 8 5 5 4 3 2 2 2 3 3 4 4 5 6 6 7 7 7 11 13 13 13 14 16 17 19
10 10 11 10 10 10 10 12 12 11 11 10 9 8 7 7 7 6 5 5 5 3 3 2 2 2 3 3 4 5 7 8 8 4 7 8 8 7 8 10 13 16 18
9 10 10 11 11 8 15 17 14 12 11 11 10 9 8 7 8 8 6 6 5 4 3 2 2 3 4 4 4 5 7 7 6 5 8 9 7 7 7 7 13 17 18
10 10 10 11 11 13 19 19 15 11 11 10 10 9 7 6 7 6 7 7 5 4 4 3 4 4 4 4 5 6 6 7 7 8 8 7 6 7 7 7 13 15 17
10 10 10 11 11 13 19 19 17 11 9 9 9 9 9 9 8 7 6 5 4 4 4 3 3 4 4 4 4 5 6 7 8 6 4 6 6 7 8 7 9 13 16
9 8 9 11 11 14 19 20 17 9 8 9 8 8 8 8 11 11 7 6 5 4 3 3 4 4 4 4 4 3 4 5 6 4 2 5 6 8 7 5 6 11 14
8 9 8 8 10 11 18 19 16 8 9 8 7 7 7 9 11 11 7 6 6 4 3 2 3 3 3 2 2 2 3 4 4 4 1 4 5 6 7 4 5 6 8
Wind_Direction
157 153 148 150 147 141 143 135 124 111 90 54 24 1 355 354 351 348 7 33 7 9 12 13 12 10 8 7 7 6 7 8 9 8 5 1 356 351 346 342 336 331 325
166 164 160 162 159 157 149 150 137 129 53 358 343 340 334 338 344 347 355 43 52 31 27 27 23 20 17 15 14 12 12 14 14 13 12 9 5 0 356 351 346 339 333
178 175 172 174 172 169 171 180 180 225 281 306 313 320 323 331 343 356 18 34 60 60 43 36 32 29 25 22 20 18 17 17 16 14 12 8 3 358 354 350 345 341 338
190 185 184 184 179 182 192 197 209 229 248 289 313 325 322 331 353 32 61 63 57 56 60 48 41 36 32 29 25 22 19 18 16 13 9 5 360 355 351 347 343 340 336
196 197 196 188 184 191 198 199 219 242 264 287 311 317 325 342 37 80 81 74 65 55 51 59 57 46 37 32 27 23 19 17 13 10 6 2 358 353 350 346 342 339 337
198 201 202 195 192 197 200 203 211 213 255 286 291 294 336 36 88 93 94 88 72 59 50 47 51 55 45 36 29 23 18 15 12 9 4 0 357 353 349 345 342 340 337
199 202 202 200 198 206 207 203 201 212 217 230 263 276 141 102 99 101 99 92 76 63 56 51 44 37 40 39 31 23 18 14 11 7 2 359 355 351 348 345 343 340 337
203 204 206 203 201 206 207 199 193 201 194 204 250 277 245 169 129 108 102 88 74 68 64 56 50 44 36 35 32 25 17 12 8 4 0 357 353 350 348 345 343 340 337
207 206 208 206 203 203 205 201 196 205 201 190 225 248 260 240 159 146 122 103 75 66 66 62 55 49 41 36 27 22 13 9 5 2 359 356 353 351 349 346 344 341 338
208 208 208 207 205 204 208 202 195 201 201 190 188 226 265 276 260 216 160 125 76 63 66 66 60 54 40 35 30 19 9 6 4 1 358 356 354 351 349 347 345 342 340
208 209 208 206 203 202 204 195 189 193 201 198 179 171 180 198 231 249 246 199 126 79 68 68 63 50 36 28 21 10 4 3 2 0 358 356 353 351 348 346 344 343 341
204 207 205 204 202 199 199 194 190 191 192 189 181 178 178 184 194 212 239 255 278 96 87 77 65 46 29 18 20 3 0 0 359 358 356 353 351 350 348 345 344 343 342
201 203 198 200 196 194 189 181 175 176 177 177 176 173 173 173 163 185 216 227 246 223 175 135 71 42 25 9 6 353 356 357 354 353 352 350 349 347 346 344 343 342 341
201 197 194 192 187 179 170 167 161 160 160 161 159 155 145 141 148 170 188 191 215 221 224 187 139 50 17 2 357 342 347 353 348 349 348 347 346 346 345 344 342 341 341
191 188 183 177 172 166 163 158 152 152 148 148 148 142 134 127 125 136 153 193 218 225 219 167 174 68 4 351 348 338 337 344 339 343 344 343 344 345 344 343 342 341 340
181 177 170 166 162 158 155 151 144 147 144 142 144 142 135 130 126 132 142 158 217 241 233 183 260 359 346 335 338 331 330 326 328 339 338 339 342 344 343 342 342 342 342
178 175 169 164 161 159 156 151 149 150 147 143 144 142 138 138 140 141 141 149 157 204 233 222 268 320 322 328 330 330 326 327 330 335 335 336 340 341 341 341 341 341 341
176 172 165 161 159 159 157 155 153 156 154 153 151 146 145 146 145 145 148 153 157 174 226 248 266 297 303 321 325 324 324 322 322 329 330 334 336 337 338 338 340 341 341
167 164 163 161 161 159 157 155 154 154 155 153 154 153 153 154 152 154 156 156 153 162 192 239 270 282 292 314 320 317 319 318 322 324 324 333 333 332 333 336 338 339 339
164 164 164 161 158 155 153 150 148 147 145 144 147 151 156 160 159 159 159 160 159 168 189 234 260 279 290 316 314 323 324 328 325 321 326 328 326 322 328 334 335 337 339
159 156 153 150 150 151 155 152 149 148 146 143 145 149 152 149 152 157 160 166 170 177 192 227 256 280 297 320 326 327 319 321 319 316 327 323 321 320 327 331 333 339 341
146 148 153 153 154 155 158 154 150 149 149 150 151 150 147 151 156 161 167 174 182 187 197 222 247 271 291 308 315 314 316 323 320 331 326 313 312 313 323 326 330 337 342
149 152 155 155 155 158 159 154 150 149 151 154 155 155 155 160 164 166 171 177 186 203 218 234 251 266 286 298 303 302 307 306 298 313 318 301 311 311 320 317 323 334 342
156 155 156 156 151 157 158 154 148 145 147 152 158 161 161 166 175 174 173 178 189 203 218 232 249 266 279 290 286 291 299 295 285 281 299 292 311 313 314 306 317 335 342
154 153 155 156 153 156 161 157 151 145 148 153 157 163 167 171 179 181 179 183 194 207 219 237 255 266 280 292 302 289 292 298 300 302 323 298 308 315 305 297 317 330 337
151 146 149 155 154 156 163 162 157 151 153 155 159 168 178 180 183 188 189 191 205 208 204 219 235 253 264 278 299 281 279 284 293 297 356 316 307 323 309 302 315 321 330